Find Starlink 35362

NORAD ID: 65888 Int'l Des: 2025-224 Owner: SPXS Country: US Constellation: starlink operational
LEOCIRCULAR

当前视图

正在加载3D地球...

About Starlink 35362

Starlink 35362 (NORAD 65888) is a starlink constellation satellite (v2 mini) launched Oct 7, 2025 by SPXS of US. It operates in LEO, CIRCULAR orbit with a mass of 575.00 kg.

即将过境

Passes for default location (London). Set your location on the main map for personalized predictions.

高度历史

Loading altitude history...

两行轨道根数

1 65888U 25224G 26265.14482597 .00023626 00000-0 70791-3 0 9997
2 65888 53.1582 178.0511 0001063 89.2936 270.8188 15.34411546 54918
Epoch: Sep 22, 2026 • Age: 15 hours

当前状态

高度 481.2 km
远地点 / 近地点 N/A
速度 7.62 km/s
星下点 -51.57°S, 178.03°W
发射日期 Oct 7, 2025
运行时间 0.9 years
类型 internet

技术详情

分类 Payload
质量 575.00 kg
干质量 530.00 kg
长度 0.30 m
跨度 29.00 m
形状 ? Box + pan
制造商 SPXS
平台类型 Starlink V2MO
阶段状态 In Orbit
所有者/国家 SPXS/US

Most Searched